Temperature
22 23 22 22 22 22 22 22 22 22 22 22 22 22 22 21 20 20 20 19 19 19 18 17 17 17 16 16 16 16 16 16 15 15 15 15 15 14 14 14 14 14 14 14
22 22 22 22 22 22 22 22 22 22 22 22 22 22 22 21 21 20 20 20 19 18 18 17 17 16 16 16 16 16 16 15 15 15 15 15 14 14 14 14 14 14 14 14
22 22 22 21 21 22 22 22 22 21 21 21 21 22 22 22 20 20 19 19 19 18 18 17 17 16 16 16 16 16 15 15 15 15 15 15 14 14 14 14 14 14 14 14
22 21 21 21 21 22 22 22 21 21 21 22 21 22 22 22 21 21 19 19 18 18 18 17 17 16 16 16 16 15 15 15 15 15 14 14 14 14 14 14 14 14 14 13
21 21 21 21 21 21 21 21 21 21 21 21 21 21 22 22 21 21 20 19 18 18 17 17 17 16 16 16 15 15 15 15 15 15 14 14 14 14 14 14 14 14 14 13
21 21 21 21 21 21 21 21 21 21 21 21 21 21 22 22 21 21 20 19 18 18 17 17 16 16 16 16 15 15 15 15 15 15 14 14 14 14 14 14 14 14 13 13
21 21 21 21 21 21 21 21 21 21 21 21 21 21 21 21 21 21 20 19 18 17 17 17 16 16 16 15 15 15 15 15 15 14 14 14 14 14 14 14 13 13 13 13
20 21 21 21 21 21 21 21 21 20 21 21 21 21 22 21 20 19 19 18 17 17 17 16 16 15 15 15 15 15 15 14 14 14 14 14 14 14 14 14 13 13 13 13
21 20 20 20 20 21 21 21 21 21 21 20 21 21 21 20 20 19 19 18 17 16 16 16 15 15 15 15 15 15 14 14 14 14 14 14 14 14 14 14 13 13 13 13
20 20 20 19 20 19 21 21 20 20 20 20 21 21 21 20 20 20 19 18 17 16 16 15 15 15 15 14 14 14 14 14 14 14 14 14 14 14 14 13 13 13 13 13
20 20 19 19 19 20 19 20 20 20 20 20 20 21 21 20 20 20 19 18 17 16 16 15 15 15 14 14 14 14 14 14 14 14 14 13 13 13 13 13 13 13 13 13
19 20 19 19 19 18 19 20 20 19 20 20 20 20 20 19 19 19 18 18 17 16 16 15 14 14 14 14 14 13 13 13 13 13 13 13 13 13 13 13 13 13 13 13
18 19 19 19 19 18 18 18 19 19 19 19 19 20 19 19 18 18 17 17 17 16 15 15 14 14 14 14 13 13 13 13 13 13 13 13 13 13 13 13 13 12 12 12
17 19 19 19 19 19 18 18 18 19 19 19 19 20 19 19 18 18 17 16 16 15 15 14 14 14 13 13 13 13 13 13 13 13 13 13 13 13 13 12 12 12 12 12
18 18 18 18 18 18 17 17 17 18 19 19 19 19 19 19 18 17 16 16 15 15 14 14 14 13 13 13 13 13 13 13 12 12 12 12 12 12 12 12 12 12 12 12
17 18 18 17 17 17 17 17 17 17 18 18 18 18 19 18 17 16 16 15 15 14 14 14 14 13 13 13 13 12 12 12 12 12 12 12 12 12 12 12 12 11 11 11
17 17 17 18 17 17 17 18 17 17 17 18 18 19 18 17 16 16 15 15 15 14 14 13 13 13 13 13 12 12 12 12 12 12 11 11 11 11 11 11 11 11 11 11
17 17 17 17 17 16 18 17 17 17 17 17 17 17 17 16 15 15 14 14 14 14 13 13 13 13 13 12 12 12 11 11 11 11 11 11 11 11 11 11 11 11 10 11
16 16 16 16 16 17 17 16 16 16 17 17 17 16 16 15 15 15 14 13 13 13 13 13 13 12 12 12 11 11 11 11 11 11 10 11 11 11 10 10 10 10 10 10
14 15 16 16 15 16 17 16 15 16 16 16 16 16 15 15 16 16 14 13 13 12 12 12 12 12 12 11 11 11 10 10 10 10 10 10 10 10 10 10 10 10 10 10
14 14 15 15 15 17 17 15 15 16 17 15 14 14 14 15 15 14 13 12 12 12 12 11 11 11 11 11 11 10 10 10 10 10 9 9 10 9 9 10 10 10 10 9
15 15 14 15 15 16 15 14 15 16 14 14 13 13 13 13 13 12 12 12 12 11 11 11 11 10 10 10 10 10 9 9 9 9 9 9 9 9 9 9 9 9 9 9
15 15 16 15 16 15 14 14 14 13 13 13 13 12 12 12 12 12 11 11 11 11 11 10 10 10 10 10 9 9 9 9 9 8 8 9 9 9 9 9 9 8 8 8
14 13 14 14 15 14 13 13 12 12 12 12 12 12 11 11 11 11 11 11 10 10 10 10 10 10 9 9 9 9 9 9 8 8 8 8 8 8 8 8 8 8 8 8
14 13 14 14 15 13 12 12 12 12 11 11 11 11 11 11 11 11 11 10 10 10 10 9 9 9 9 9 8 8 8 8 8 8 8 8 8 8 8 8 7 8 8 8
13 13 14 15 15 14 14 12 12 11 11 11 11 11 11 10 10 10 10 10 10 9 9 9 9 9 9 8 8 8 8 8 8 8 7 7 7 7 7 7 7 7 7 7
Wind_Speed
3 5 5 5 4 3 3 4 3 2 2 4 5 5 5 5 6 7 7 7 7 7 7 6 6 6 6 6 6 5 5 5 4 3 3 3 3 2 2 1 2 2 2 2
6 5 3 3 4 5 5 5 4 3 2 4 5 6 5 4 5 6 6 7 7 7 6 6 6 7 7 7 6 6 6 6 5 3 2 2 2 2 2 2 2 2 1 1
5 2 3 5 6 6 6 5 4 3 3 5 5 6 5 4 4 4 5 5 6 7 7 8 7 8 7 7 7 6 7 7 6 5 3 3 2 2 2 2 2 2 2 1
3 2 5 6 5 6 5 4 5 5 6 4 4 4 4 4 5 4 4 4 5 7 7 7 7 7 8 7 7 7 7 7 7 7 5 5 4 3 3 3 2 2 2 2
3 3 5 6 4 5 2 3 4 5 6 6 5 6 3 4 4 4 3 3 4 5 7 7 7 7 7 7 7 7 7 7 7 7 6 5 4 4 3 3 3 3 3 2
2 2 3 3 3 4 5 5 5 5 6 7 5 6 3 3 4 3 2 2 2 3 5 5 6 6 6 7 7 7 7 7 7 7 7 7 6 4 4 4 4 3 2 2
4 4 3 3 4 6 6 6 4 5 5 4 3 6 3 0 2 3 2 2 2 2 3 4 5 5 6 7 7 7 8 7 7 7 7 7 6 6 5 4 4 4 3 3
5 5 3 2 4 5 7 7 4 3 4 3 4 5 1 1 2 2 2 2 3 2 2 3 3 4 5 6 7 7 8 8 7 8 8 7 6 5 4 4 4 4 3 3
4 3 2 0 1 4 6 7 5 5 5 5 4 4 3 3 3 3 3 3 3 2 2 2 2 3 4 5 6 7 7 8 7 8 7 7 6 5 5 5 4 4 3 3
3 3 2 1 3 1 3 4 4 6 4 6 5 7 4 4 4 3 3 3 2 2 2 2 2 2 3 4 5 6 6 6 7 7 6 5 6 6 5 5 4 4 4 3
3 4 3 4 4 5 4 5 5 5 5 5 5 3 1 2 3 3 3 2 2 2 2 1 1 1 2 3 4 5 5 5 5 5 6 6 5 5 5 4 4 4 4 4
2 3 4 3 2 2 5 6 7 6 5 6 6 3 3 2 2 2 2 2 2 1 1 1 1 1 2 2 3 3 4 4 4 4 5 5 5 5 4 4 4 5 4 4
2 4 4 4 5 5 5 5 6 6 5 7 8 4 4 2 2 1 1 2 2 1 1 1 1 1 1 1 2 2 3 3 3 3 3 4 4 4 4 4 4 4 4 4
3 5 7 6 3 2 5 6 7 8 8 9 10 8 4 3 3 3 2 2 2 1 1 1 1 1 1 1 1 2 2 2 2 3 3 3 3 4 4 4 4 4 4 4
3 6 7 7 5 5 8 9 10 12 12 11 10 9 8 5 4 4 4 3 3 2 2 1 1 1 1 1 1 2 1 2 2 3 3 3 3 3 3 3 4 4 4 4
3 5 6 7 6 6 10 12 13 14 13 13 13 12 7 4 3 4 4 4 4 3 2 2 2 2 2 2 2 2 2 2 2 3 3 3 2 2 2 3 3 4 4 4
4 5 6 7 5 7 11 11 12 11 11 11 12 9 5 4 5 5 4 4 4 4 3 3 3 3 3 3 3 3 2 2 2 2 2 2 2 2 2 2 3 3 4 4
6 7 5 5 5 9 3 0 5 7 8 9 9 7 6 5 4 4 4 4 4 4 4 4 3 3 2 2 2 2 2 2 2 2 2 2 2 2 2 3 3 3 3 4
7 7 5 5 7 8 5 3 4 6 6 6 7 6 4 3 4 4 3 3 4 3 3 3 3 2 2 2 2 2 2 2 2 3 3 2 2 3 3 3 4 4 3 4
5 8 7 7 7 7 2 3 2 4 5 2 4 4 4 4 5 3 1 2 3 2 1 2 2 2 2 2 2 2 3 3 3 3 3 3 3 3 4 4 4 3 3 4
6 7 10 11 9 7 2 3 5 6 1 2 3 3 3 4 4 2 2 2 2 1 1 1 2 2 2 2 2 2 3 3 3 3 3 3 3 4 4 3 3 3 3 3
8 7 8 8 9 7 5 6 6 2 2 2 2 3 3 3 3 2 2 2 2 1 2 2 2 2 2 2 3 3 3 3 3 3 3 3 3 3 3 3 3 3 3 3
8 7 5 7 6 1 5 5 3 1 2 2 2 2 3 4 4 4 3 3 2 2 2 2 3 2 2 2 3 3 3 2 2 3 3 4 4 3 3 3 4 3 3 3
6 6 7 7 9 7 7 6 5 4 4 3 3 4 5 6 5 5 4 3 3 3 2 3 3 3 3 3 3 3 3 2 3 3 3 3 3 3 3 3 3 4 4 4
7 7 8 10 8 6 8 8 7 6 5 4 4 5 6 6 6 6 5 5 4 3 3 3 3 4 4 3 3 3 3 3 3 3 3 3 3 3 3 3 3 4 4 4
9 10 10 9 8 7 6 6 7 7 7 6 6 5 5 6 6 6 6 5 4 4 4 4 4 4 4 4 4 3 3 3 4 3 3 3 3 3 3 3 3 3 4 4
Wind_Direction
182 192 189 191 208 220 205 209 207 204 187 220 229 242 243 212 210 214 210 208 208 205 198 195 193 193 194 191 186 171 167 160 151 152 161 162 158 155 151 140 122 114 109 105
186 191 193 189 192 201 207 212 208 188 194 229 239 248 249 225 220 223 219 212 212 205 196 187 187 188 193 187 183 177 177 171 166 162 166 171 160 171 167 166 157 152 135 127
202 163 176 191 194 202 208 222 224 230 214 213 248 239 218 212 214 217 223 221 219 213 206 195 194 194 193 191 187 186 183 175 172 166 162 154 149 167 172 181 185 185 188 185
199 192 191 200 207 225 219 216 227 224 233 229 245 255 213 208 207 209 213 215 218 215 212 203 198 198 196 194 189 190 188 183 179 175 179 181 191 195 202 197 192 196 205 213
182 179 194 208 217 225 216 196 216 228 242 245 231 251 225 198 218 213 200 209 217 213 209 207 204 201 197 191 189 191 189 186 184 186 187 197 208 209 202 202 205 208 203 211
208 197 223 226 203 198 179 189 196 218 240 241 229 242 241 204 238 235 206 188 192 197 196 202 200 196 193 188 188 190 193 190 188 193 196 203 209 212 207 210 213 214 205 206
195 186 187 206 191 184 207 222 224 219 223 237 208 236 248 254 251 234 220 182 155 161 176 181 185 191 190 188 189 193 195 196 194 198 205 208 213 215 218 220 221 223 218 214
212 192 172 205 230 223 216 228 245 257 249 241 208 233 218 134 157 181 180 159 142 134 139 158 173 186 188 190 194 199 199 201 201 206 209 211 214 218 225 226 230 232 233 228
228 195 126 79 257 232 215 219 255 269 266 253 226 224 207 173 175 174 164 149 142 137 127 131 159 178 186 191 194 199 201 202 203 208 209 211 217 218 222 227 229 235 237 229
264 235 182 170 187 173 254 210 221 235 246 248 239 235 224 189 194 181 175 167 150 142 142 133 147 175 184 191 193 195 201 203 203 208 209 211 217 219 221 223 225 230 228 215
252 238 204 193 217 220 191 202 229 238 247 257 260 233 164 212 201 187 176 181 179 164 156 148 148 165 173 180 186 192 198 199 198 203 209 212 214 216 215 221 225 229 229 222
233 250 243 227 212 259 236 226 224 240 235 242 267 261 112 189 200 203 212 203 185 169 149 141 143 137 139 163 186 194 198 203 204 206 209 215 214 209 213 220 224 226 227 226
202 232 233 205 190 191 210 220 234 246 249 245 252 245 129 167 189 222 249 240 206 179 160 137 133 139 152 166 180 189 200 209 203 204 210 211 213 214 216 220 220 222 225 224
240 238 245 257 283 227 233 229 228 232 241 247 249 260 245 239 247 264 269 257 226 207 189 151 134 149 160 172 181 182 189 195 195 194 206 215 222 225 223 224 223 222 225 224
243 247 252 265 273 258 255 249 237 238 247 255 262 261 263 260 262 271 271 256 231 222 219 215 201 179 174 181 201 192 188 192 197 198 204 223 231 234 232 224 225 226 225 228
238 249 251 256 253 256 261 254 246 245 248 252 260 264 262 253 247 255 258 248 232 226 227 232 234 224 215 209 213 204 195 204 203 209 210 215 231 236 239 237 227 228 228 233
218 235 248 256 259 270 259 246 236 235 236 241 251 259 245 246 244 249 255 253 244 238 233 238 247 242 233 230 223 219 207 202 201 215 225 212 222 238 242 247 235 231 232 232
227 231 243 260 256 249 258 195 229 229 246 246 254 260 249 248 247 252 255 253 254 256 249 245 249 250 244 229 219 222 215 210 212 219 225 229 232 240 242 239 239 241 241 237
228 221 228 238 250 264 257 221 214 226 252 249 246 240 243 239 237 240 246 261 271 268 262 255 255 250 240 221 213 210 214 216 222 231 235 238 238 239 240 237 239 241 246 247
204 218 227 230 243 252 236 150 201 233 241 215 226 227 234 232 244 252 292 275 278 274 262 256 247 241 229 212 207 212 224 228 232 239 244 242 244 241 242 244 244 248 248 250
190 207 222 231 241 258 231 163 182 220 245 134 212 226 220 241 278 319 329 295 275 261 262 251 244 242 233 211 208 223 232 241 249 251 249 245 247 248 245 244 244 239 237 244
207 207 213 220 230 242 149 171 207 242 73 170 205 214 228 267 293 297 299 292 281 272 264 247 238 240 233 215 217 236 252 265 267 260 254 250 252 252 248 239 243 236 227 231
218 221 220 220 234 286 180 211 223 223 217 221 223 229 243 261 267 275 274 264 267 269 261 250 238 239 238 227 232 248 266 272 267 265 265 260 259 254 247 241 240 241 235 235
216 218 227 239 244 241 234 235 232 231 242 249 246 242 242 255 262 265 261 253 250 255 254 252 243 240 249 250 249 257 266 262 257 263 269 262 257 257 248 244 240 239 238 239
223 202 225 242 246 246 238 229 230 231 239 246 252 254 249 251 253 255 256 252 252 252 248 249 252 250 257 261 261 263 257 253 254 261 270 267 256 256 253 252 254 252 247 248
220 219 226 243 237 231 239 231 231 232 234 237 245 252 253 250 253 253 253 250 249 253 254 252 255 259 261 262 264 264 256 252 254 262 276 278 267 258 250 254 275 289 259 258
Height
1503 1501 1502 1502 1502 1503 1504 1506 1509 1509 1509 1511 1510 1511 1511 1513 1515 1515 1517 1518 1520 1522 1524 1525 1526 1527 1529 1531 1532 1533 1534 1535 1536 1537 1538 1539 1539 1540 1541 1541 1542 1542 1542 1542
1501 1502 1502 1503 1504 1505 1505 1507 1508 1509 1509 1510 1510 1510 1508 1510 1512 1513 1514 1516 1517 1519 1521 1523 1524 1525 1527 1529 1530 1532 1533 1534 1535 1536 1537 1538 1539 1540 1541 1541 1541 1542 1542 1542
1499 1502 1503 1504 1504 1505 1505 1506 1507 1509 1509 1509 1509 1508 1506 1507 1510 1512 1513 1515 1516 1517 1519 1521 1522 1524 1525 1527 1528 1530 1531 1532 1534 1535 1536 1537 1538 1539 1540 1540 1541 1541 1541 1541
1500 1502 1503 1503 1504 1503 1506 1505 1507 1508 1509 1508 1509 1510 1503 1503 1506 1509 1511 1513 1514 1515 1517 1519 1520 1522 1523 1525 1527 1529 1530 1531 1532 1533 1535 1536 1537 1538 1539 1540 1540 1540 1540 1541
1501 1502 1502 1503 1503 1503 1504 1506 1506 1507 1507 1507 1507 1509 1501 1501 1503 1505 1508 1510 1512 1513 1515 1516 1518 1520 1521 1523 1525 1526 1528 1529 1530 1532 1533 1534 1536 1537 1538 1538 1539 1539 1539 1539
1501 1503 1503 1502 1503 1504 1505 1506 1506 1505 1505 1511 1506 1508 1504 1499 1501 1502 1505 1508 1510 1512 1513 1514 1516 1518 1520 1521 1523 1524 1526 1527 1528 1530 1531 1532 1534 1535 1536 1537 1537 1538 1538 1538
1501 1501 1502 1503 1503 1504 1504 1506 1510 1511 1511 1508 1503 1506 1503 1498 1500 1502 1505 1507 1509 1510 1512 1513 1514 1515 1517 1518 1520 1522 1523 1525 1526 1527 1529 1531 1532 1533 1534 1535 1535 1536 1536 1536
1502 1503 1501 1502 1501 1502 1501 1503 1511 1515 1511 1504 1504 1504 1499 1499 1502 1504 1505 1507 1508 1509 1510 1511 1512 1513 1514 1516 1517 1519 1520 1522 1524 1525 1527 1529 1530 1531 1532 1533 1533 1534 1534 1534
1500 1502 1502 1503 1502 1501 1502 1501 1501 1505 1505 1508 1501 1499 1497 1499 1501 1503 1504 1506 1507 1508 1509 1510 1510 1512 1513 1514 1515 1516 1518 1520 1521 1523 1524 1526 1528 1529 1529 1530 1531 1532 1532 1532
1499 1503 1502 1504 1503 1504 1501 1501 1504 1507 1512 1510 1503 1500 1497 1497 1498 1500 1502 1504 1506 1507 1508 1509 1509 1510 1511 1512 1513 1514 1516 1517 1519 1520 1522 1523 1525 1526 1527 1528 1528 1529 1529 1529
1500 1501 1502 1502 1503 1501 1504 1505 1504 1502 1503 1507 1506 1500 1494 1495 1497 1499 1501 1503 1505 1507 1507 1508 1508 1509 1509 1510 1511 1512 1514 1515 1517 1518 1519 1521 1522 1523 1524 1525 1525 1526 1526 1527
1502 1500 1500 1501 1502 1503 1502 1501 1503 1506 1504 1503 1503 1502 1495 1496 1498 1500 1501 1503 1505 1506 1507 1507 1508 1508 1508 1509 1510 1510 1512 1513 1514 1515 1517 1518 1519 1520 1521 1521 1522 1523 1523 1524
1502 1501 1503 1503 1505 1504 1502 1502 1502 1501 1501 1501 1503 1501 1496 1497 1498 1500 1501 1502 1504 1505 1506 1506 1507 1507 1507 1507 1508 1509 1509 1510 1511 1513 1514 1515 1516 1517 1517 1518 1519 1520 1520 1521
1503 1499 1500 1502 1497 1498 1502 1503 1502 1501 1500 1498 1497 1495 1494 1496 1498 1499 1501 1502 1503 1504 1504 1505 1505 1505 1506 1506 1506 1507 1507 1508 1509 1510 1510 1512 1512 1513 1514 1515 1516 1517 1517 1517
1502 1499 1498 1498 1498 1500 1500 1501 1501 1499 1496 1496 1493 1493 1492 1494 1497 1499 1500 1501 1501 1502 1503 1503 1503 1504 1504 1504 1505 1505 1505 1506 1506 1507 1508 1509 1510 1511 1511 1512 1512 1513 1514 1514
1502 1500 1499 1499 1499 1499 1499 1497 1497 1497 1495 1494 1493 1493 1492 1494 1497 1498 1498 1499 1500 1500 1501 1501 1502 1502 1502 1502 1503 1503 1503 1504 1504 1505 1505 1506 1507 1507 1508 1508 1509 1510 1510 1511
1500 1500 1500 1497 1497 1498 1495 1489 1491 1491 1491 1491 1491 1489 1491 1493 1495 1496 1497 1497 1498 1498 1499 1499 1500 1500 1500 1500 1500 1501 1501 1501 1502 1502 1503 1503 1503 1504 1505 1505 1506 1506 1507 1507
1499 1499 1498 1497 1499 1501 1487 1487 1487 1489 1488 1489 1489 1489 1491 1492 1494 1495 1495 1496 1495 1496 1496 1497 1497 1497 1498 1498 1498 1498 1499 1499 1499 1500 1500 1500 1500 1501 1501 1502 1502 1502 1503 1503
1499 1498 1498 1498 1496 1489 1485 1486 1488 1488 1486 1487 1488 1489 1490 1492 1492 1492 1493 1493 1494 1494 1494 1494 1495 1495 1495 1495 1495 1495 1496 1496 1496 1497 1497 1497 1497 1497 1498 1498 1498 1499 1499 1499
1499 1498 1497 1497 1497 1491 1482 1485 1487 1489 1486 1486 1487 1488 1489 1490 1488 1489 1491 1491 1492 1492 1492 1492 1492 1492 1492 1492 1492 1492 1493 1493 1493 1493 1493 1493 1494 1494 1494 1494 1494 1494 1494 1494
1497 1497 1496 1493 1492 1482 1482 1485 1488 1489 1483 1486 1487 1487 1489 1489 1489 1490 1490 1490 1490 1490 1490 1489 1489 1490 1490 1489 1489 1490 1490 1490 1490 1490 1490 1490 1490 1491 1491 1491 1491 1490 1490 1490
1488 1489 1490 1489 1490 1484 1483 1484 1484 1482 1484 1485 1486 1487 1488 1488 1488 1488 1488 1488 1488 1488 1487 1487 1487 1487 1487 1487 1487 1487 1487 1487 1487 1486 1486 1486 1487 1487 1487 1487 1486 1486 1486 1486
1483 1481 1480 1481 1480 1479 1481 1481 1482 1483 1483 1484 1485 1485 1486 1486 1486 1486 1486 1486 1486 1486 1485 1485 1485 1485 1484 1484 1484 1484 1484 1483 1483 1483 1482 1483 1483 1483 1483 1483 1482 1482 1483 1482
1479 1482 1481 1479 1476 1478 1479 1480 1480 1481 1482 1482 1483 1483 1484 1484 1483 1483 1483 1483 1483 1483 1483 1482 1482 1482 1482 1482 1481 1481 1481 1480 1480 1480 1479 1479 1479 1479 1479 1479 1479 1479 1479 1479
1473 1477 1475 1473 1473 1475 1475 1476 1477 1478 1479 1480 1480 1481 1481 1481 1481 1481 1481 1480 1480 1480 1480 1479 1480 1479 1479 1479 1478 1478 1477 1477 1477 1476 1476 1476 1475 1475 1475 1475 1474 1474 1474 1474
1470 1470 1470 1467 1468 1470 1471 1472 1474 1475 1475 1476 1477 1477 1477 1478 1477 1477 1477 1477 1477 1477 1476 1476 1476 1476 1476 1475 1475 1474 1474 1474 1473 1473 1472 1472 1471 1471 1470 1470 1470 1469 1469 1469